This demonstration page uses our WeatherBlox Daily Observations layout. Learn more.

Left ArrowRight Arrow

Hourly Observations for June 11, 2016

Temp ( °F °C ) Dew Point ( °F °C ) Humidity (%) Winds ( mph kmh ) Pressure ( in mb ) Visibility ( mi km ) Precip ( " mm )
12:54 am 00:54 Clear 82 27.8 67 19.4 60 60 S 15 24 29.85 1011 10 16.0934 0 0
1:54 am 01:54 Clear 81 27.2 67 19.4 62 62 S 12 19 29.86 1011 10 16.0934 0 0
2:54 am 02:54 Clear 79 26.1 67 19.4 67 67 S 12 19 29.85 1011 10 16.0934 0 0
3:54 am 03:54 Clear 79 26.1 67 19.4 67 67 SSW 13 20 29.86 1011 10 16.0934 0 0
4:54 am 04:54 Clear 78 25.6 67 19.4 69 69 SSW 10 17 29.88 1012 10 16.0934 0 0
5:54 am 05:54 Clear 76 24.4 67 19.4 74 74 S 10 17 29.89 1012 10 16.0934 0 0
6:54 am 06:54 Sunny 76 24.4 67 19.4 74 74 SSW 10 17 29.9 1013 10 16.0934 0 0
7:54 am 07:54 Sunny 79 26.1 67 19.4 67 67 SSW 10 17 29.91 1013 10 16.0934 0 0
8:54 am 08:54 Sunny 82 27.8 68 20 63 63 SSW 13 20 29.92 1013 10 16.0934 0 0
9:54 am 09:54 Sunny 86 30 68 20 55 55 SSW 12 19 29.93 1014 10 16.0934 0 0
10:54 am 10:54 Sunny 90 32.2 68 20 48 48 SW 17 28 29.92 1013 10 16.0934 0 0
11:54 am 11:54 Sunny 93 33.9 67 19.4 42 42 SSW 16 26 29.92 1013 10 16.0934 0 0
12:54 pm 12:54 Sunny 95 35 67 19.4 40 40 SSW 15 24 29.91 1013 10 16.0934 0 0
1:54 pm 13:54 Sunny 96 35.6 66 18.9 37 37 SSW 17 28 29.89 1012 10 16.0934 0 0
2:54 pm 14:54 Sunny 96 35.6 66 18.9 37 37 S 21 33 29.89 1012 10 16.0934 0 0
3:54 pm 15:54 Mostly Sunny 96 35.6 66 18.9 37 37 SSW 16 26 29.89 1012 10 16.0934 0 0
4:54 pm 16:54 Partly Cloudy 96 35.6 67 19.4 39 39 SSW 17 28 29.87 1012 10 16.0934 0 0
5:54 pm 17:54 Mostly Sunny 96 35.6 66 18.9 37 37 S 16 26 29.87 1012 10 16.0934 0 0
6:54 pm 18:54 Sunny 93 33.9 67 19.4 42 42 S 16 26 29.88 1012 10 16.0934 0 0
7:54 pm 19:54 Sunny 90 32.2 67 19.4 47 47 S 10 17 29.89 1012 10 16.0934 0 0
8:54 pm 20:54 Sunny 87 30.6 67 19.4 51 51 S 12 19 29.91 1013 10 16.0934 0 0
9:54 pm 21:54 Clear 84 28.9 66 18.9 55 55 S 12 19 29.91 1013 10 16.0934 0 0
10:54 pm 22:54 Clear 83 28.3 65 18.3 55 55 S 12 19 29.93 1014 10 16.0934 0 0
11:54 pm 23:54 Clear 81 27.2 65 18.3 58 58 S 10 17 29.94 1014 10 16.0934 0 0

Powered by AerisWeather